H1 CPF 2 NER 2023 8 16 9 228 01 glonass143 H2 2007501 9143 46805 2023 8 16 0 0 0 2023 8 19 23 45 0 900 1 1 0 0 0 1 H9 10 0 60172 0.00000 0 9430762.566 18336700.317 15018742.801 10 0 60172 900.00000 0 9805640.639 19991336.563 12442569.560 10 0 60172 1800.00000 0 10226118.988 21290825.761 9624676.270 10 0 60172 2700.00000 0 10637621.775 22212944.758 6619748.235 10 0 60172 3600.00000 0 10983641.484 22748483.927 3486142.469 10 0 60172 4500.00000 0 11208324.099 22901481.496 284754.025 10 0 60172 5400.00000 0 11259040.675 22688917.085 -2922170.435 10 0 60172 6300.00000 0 11088835.549 22139877.175 -6072248.334 10 0 60172 7200.00000 0 10658646.280 21294227.597 -9104181.711 10 0 60172 8100.00000 0 9939199.950 20200849.217 -11958958.001 10 0 60172 9000.00000 0 8912503.995 18915511.547 -14581006.727 10 0 60172 9900.00000 0 7572866.951 17498474.541 -16919288.658 10 0 60172 10800.00000 0 5927404.482 16011920.278 -18928295.498 10 0 60172 11700.00000 0 3996007.912 14517323.404 -20568940.115 10 0 60172 12600.00000 0 1810775.370 13072871.613 -21809319.648 10 0 60172 13500.00000 0 -585071.641 11731045.076 -22625336.610 10 0 60172 14400.00000 0 -3138741.687 10536456.687 -23001166.069 10 0 60172 15300.00000 0 -5789832.490 9524043.741 -22929560.120 10 0 60172 16200.00000 0 -8472614.332 8717686.497 -22411984.140 10 0 60172 17100.00000 0 -11118542.931 8129310.869 -21458582.633 10 0 60172 18000.00000 0 -13658897.349 7758511.933 -20087975.734 10 0 60172 18900.00000 0 -16027433.383 7592712.880 -18326890.739 10 0 60172 19800.00000 0 -18162942.322 7607851.413 -16209636.113 10 0 60172 20700.00000 0 -20011608.926 7769563.454 -13777428.516 10 0 60172 21600.00000 0 -21529070.952 8034812.999 -11077586.154 10 0 60172 22500.00000 0 -22682095.133 8353898.279 -8162604.393 10 0 60172 23400.00000 0 -23449800.510 8672748.620 -5089131.874 10 0 60172 24300.00000 0 -23824379.130 8935414.172 -1916867.323 10 0 60172 25200.00000 0 -23811285.147 9086642.740 1292601.270 10 0 60172 26100.00000 0 -23428885.663 9074434.389 4476992.228 10 0 60172 27000.00000 0 -22707589.179 8852465.596 7574537.153 10 0 60172 27900.00000 0 -21688489.314 8382280.416 10525175.815 10 0 60172 28800.00000 0 -20421581.556 7635156.040 13271715.866 10 0 60172 29700.00000 0 -18963628.475 6593563.949 15760935.208 10 0 60172 30600.00000 0 -17375763.122 5252164.872 17944606.208 10 0 60172 31500.00000 0 -15720931.018 3618295.278 19780422.572 10 0 60172 32400.00000 0 -14061277.388 1711924.252 21232811.773 10 0 60172 33300.00000 0 -12455588.269 -434918.447 22273618.159 10 0 60172 34200.00000 0 -10956891.646 -2779220.545 22882644.301 10 0 60172 35100.00000 0 -9610317.836 -5268528.181 23048040.742 10 0 60172 36000.00000 0 -8451307.566 -7842887.174 22766536.969 10 0 60172 36900.00000 0 -7504241.744 -10437105.621 22043509.194 10 0 60172 37800.00000 0 -6781549.532 -12983245.500 20892883.333 10 0 60172 38700.00000 0 -6283331.557 -15413241.343 19336874.439 10 0 60172 39600.00000 0 -5997513.871 -17661538.369 17405566.739 10 0 60172 40500.00000 0 -5900526.208 -19667641.358 15136341.325 10 0 60172 41400.00000 0 -5958476.207 -21378468.703 12573161.436 10 0 60172 42300.00000 0 -6128770.451 -22750413.694 9765728.128 10 0 60172 43200.00000 0 -6362114.194 -23751026.817 6768521.806 10 0 60172 44100.00000 0 -6604805.400 -24360248.359 3639747.590 10 0 60172 45000.00000 0 -6801225.952 -24571139.076 440204.756 10 0 60172 45900.00000 0 -6896424.146 -24390077.750 -2767897.676 10 0 60172 46800.00000 0 -6838678.300 -23836416.802 -5922155.776 10 0 60172 47700.00000 0 -6581931.810 -22941610.134 -8961191.577 10 0 60172 48600.00000 0 -6087995.168 -21747849.770 -11825855.327 10 0 60172 49500.00000 0 -5328420.221 -20306268.834 -14460384.841 10 0 60172 50400.00000 0 -4285965.797 -18674786.842 -16813498.381 10 0 60172 51300.00000 0 -2955591.238 -16915688.493 -18839399.092 10 0 60172 52200.00000 0 -1344934.400 -15093038.317 -20498670.883 10 0 60172 53100.00000 0 525747.305 -13270040.399 -21759048.001 10 0 60172 54000.00000 0 2624171.502 -11506454.416 -22596043.261 10 0 60172 54900.00000 0 4907137.120 -9856176.580 -22993422.898 10 0 60172 55800.00000 0 7322096.679 -8365086.813 -22943519.071 10 0 60172 56700.00000 0 9809129.464 -7069251.935 -22447374.377 10 0 60172 57600.00000 0 12303233.569 -5993559.404 -21514715.991 10 0 60172 58500.00000 0 14736841.465 -5150837.777 -20163760.348 10 0 60172 59400.00000 0 17042454.442 -4541499.482 -18420852.558 10 0 60172 60300.00000 0 19155286.329 -4153719.386 -16319947.861 10 0 60172 61200.00000 0 21015806.489 -3964140.078 -13901945.503 10 0 60172 62100.00000 0 22572076.395 -3939072.636 -11213888.243 10 0 60172 63000.00000 0 23781782.723 -4036140.809 -8308043.267 10 0 60172 63900.00000 0 24613882.649 -4206297.958 -5240882.693 10 0 60172 64800.00000 0 25049793.323 -4396130.495 -2071983.746 10 0 60172 65700.00000 0 25084076.657 -4550349.630 1137129.759 10 0 60172 66600.00000 0 24724591.725 -4614365.435 4324181.837 10 0 60172 67500.00000 0 23992109.385 -4536834.007 7427351.268 10 0 60172 68400.00000 0 22919406.198 -4272069.792 10386467.618 10 0 60172 69300.00000 0 21549876.438 -3782221.046 13144173.187 10 0 60172 70200.00000 0 19935720.861 -3039116.517 15647028.680 10 0 60172 71100.00000 0 18135788.398 -2025705.332 17846541.710 10 0 60172 72000.00000 0 16213161.007 -737029.211 19700098.849 10 0 60172 72900.00000 0 14232582.328 819314.400 21171784.007 10 0 60172 73800.00000 0 12257836.832 2623238.495 22233068.155 10 0 60172 74700.00000 0 10349188.010 4642760.338 22863357.815 10 0 60172 75600.00000 0 8560981.397 6835099.509 23050392.348 10 0 60172 76500.00000 0 6939511.237 9148236.022 22790482.754 10 0 60172 77400.00000 0 5521238.740 11522865.303 22088587.395 10 0 60172 78300.00000 0 4331435.258 13894670.403 20958222.953 10 0 60172 79200.00000 0 3383306.307 16196818.554 19421211.695 10 0 60172 80100.00000 0 2677632.499 18362579.541 17507269.065 10 0 60172 81000.00000 0 2202942.110 20327957.964 15253438.539 10 0 60172 81900.00000 0 1936207.901 22034230.373 12703383.497 10 0 60172 82800.00000 0 1844038.920 23430281.662 9906548.810 10 0 60172 83700.00000 0 1884317.115 24474642.984 6917207.457 10 0 60172 84600.00000 0 2008209.666 25137145.457 3793410.069 10 0 60172 85500.00000 0 2162471.862 25400119.650 595857.522 10 0 60173 0.00000 0 2291942.632 25259089.766 -2613281.127 10 0 60173 900.00000 0 2342126.450 24722932.420 -5771583.712 10 0 60173 1800.00000 0 2261751.090 23813492.929 -8817594.355 10 0 60173 2700.00000 0 2005191.925 22564674.547 -11692028.316 10 0 60173 3600.00000 0 1534658.473 21021038.804 -14338933.658 10 0 60173 4500.00000 0 822049.263 19235975.843 -16706787.837 10 0 60173 5400.00000 0 -149604.941 17269521.900 -18749506.882 10 0 60173 6300.00000 0 -1385171.955 15185915.924 -20427346.944 10 0 60173 7200.00000 0 -2876965.221 13050998.344 -21707680.338 10 0 60173 8100.00000 0 -4604827.301 10929561.380 -22565630.918 10 0 60173 9000.00000 0 -6536747.329 8882762.050 -22984556.566 10 0 60173 9900.00000 0 -8629987.240 6965706.159 -22956369.704 10 0 60173 10800.00000 0 -10832670.246 5225303.951 -22481690.023 10 0 60173 11700.00000 0 -13085765.506 3698486.410 -21569826.876 10 0 60173 12600.00000 0 -15325386.339 2410855.819 -20238592.112 10 0 60173 13500.00000 0 -17485306.163 1375825.692 -18513947.388 10 0 60173 14400.00000 0 -19499587.296 594284.560 -16429493.103 10 0 60173 15300.00000 0 -21305212.899 54795.974 -14025809.199 10 0 60173 16200.00000 0 -22844612.354 -265675.463 -11349660.880 10 0 60173 17100.00000 0 -24067974.737 -400544.311 -8453084.923 10 0 60173 18000.00000 0 -24935254.009 -391943.771 -5392374.621 10 0 60173 18900.00000 0 -25417782.443 -288695.870 -2226983.365 10 0 60173 19800.00000 0 -25499425.356 -143999.256 981631.564 10 0 60173 20700.00000 0 -25177229.395 -12933.199 4171202.239 10 0 60173 21600.00000 0 -24461537.976 50116.055 7279857.010 10 0 60173 22500.00000 0 -23375569.720 -6002.625 10247317.627 10 0 60173 23400.00000 0 -21954478.167 -226802.315 13016063.401 10 0 60173 24300.00000 0 -20243932.602 -649995.825 15532440.129 10 0 60173 25200.00000 0 -18298279.569 -1303665.463 17747692.817 10 0 60173 26100.00000 0 -16178361.884 -2204841.991 19618902.837 10 0 60173 27000.00000 0 -13949085.845 -3358552.859 21109812.188 10 0 60173 27900.00000 0 -11676837.446 -4757380.208 22191519.782 10 0 60173 28800.00000 0 -9426854.405 -6381548.011 22843037.035 10 0 60173 29700.00000 0 -7260662.320 -8199535.847 23051692.704 10 0 60173 30600.00000 0 -5233680.473 -10169195.081 22813379.495 10 0 60173 31500.00000 0 -3393095.775 -12239322.454 22132637.780 10 0 60173 32400.00000 0 -1776092.221 -14351627.164 21022574.535 10 0 60173 33300.00000 0 -408508.658 -16443011.104 19504618.456 10 0 60173 34200.00000 0 696019.888 -18448068.646 17608115.136 10 0 60173 35100.00000 0 1536402.008 -20301702.954 15369769.076 10 0 60173 36000.00000 0 2123896.995 -21941750.434 12832942.167 10 0 60173 36900.00000 0 2481397.502 -23311504.056 10046821.203 10 0 60173 37800.00000 0 2642218.080 -24362029.946 7065469.623 10 0 60173 38700.00000 0 2648440.788 -25054179.800 3946781.262 10 0 60173 39600.00000 0 2548887.911 -25360213.918 751356.131 10 0 60173 40500.00000 0 2396807.899 -25264965.803 -2458679.838 10 0 60173 41400.00000 0 2247373.059 -24766498.302 -5620887.769 10 0 60173 42300.00000 0 2155095.841 -23876222.731 -8673737.202 10 0 60173 43200.00000 0 2171274.249 -22618475.132 -11557811.205 10 0 60173 44100.00000 0 2341575.844 -21029566.848 -14216970.875 10 0 60173 45000.00000 0 2703864.000 -19156349.002 -16599455.575 10 0 60173 45900.00000 0 3286359.761 -17054351.091 -18658896.759 10 0 60173 46800.00000 0 4106218.339 -14785571.880 -20355225.108 10 0 60173 47700.00000 0 5168581.550 -12416015.477 -21655452.936 10 0 60173 48600.00000 0 6466147.244 -10013076.003 -22534316.631 10 0 60173 49500.00000 0 7979274.730 -7642880.409 -22974766.741 10 0 60173 50400.00000 0 9676622.535 -5367700.513 -22968296.481 10 0 60173 51300.00000 0 11516292.242 -3243542.064 -22515102.671 10 0 60173 52200.00000 0 13447430.905 -1318010.912 -21624076.421 10 0 60173 53100.00000 0 15412225.149 371455.496 -20312624.152 10 0 60173 54000.00000 0 17348203.636 1798918.671 -18606322.812 10 0 60173 54900.00000 0 19190751.666 2950777.572 -16538416.319 10 0 60173 55800.00000 0 20875732.680 3826081.634 -14149163.278 10 0 60173 56700.00000 0 22342107.018 4436307.116 -11485048.938 10 0 60173 57600.00000 0 23534438.362 4804608.040 -8597876.908 10 0 60173 58500.00000 0 24405183.009 4964575.083 -5543758.589 10 0 60173 59400.00000 0 24916666.266 4958556.351 -2382020.249 10 0 60173 60300.00000 0 25042663.464 4835612.362 825950.781 10 0 60173 61200.00000 0 24769519.647 4649192.713 4017898.055 10 0 60173 62100.00000 0 24096761.496 4454633.477 7131902.794 10 0 60173 63000.00000 0 23037176.246 4306581.645 10107582.013 10 0 60173 63900.00000 0 21616354.718 4256455.757 12887254.807 10 0 60173 64800.00000 0 19871717.849 4350050.042 15417054.473 10 0 60173 65700.00000 0 17851067.556 4625383.166 17647965.430 10 0 60173 66600.00000 0 15610722.299 5110882.205 19536765.464 10 0 60173 67500.00000 0 13213314.749 5823978.338 21046855.881 10 0 60173 68400.00000 0 10725342.631 6770173.514 22148964.350 10 0 60173 69300.00000 0 8214573.789 7942617.727 22821707.611 10 0 60173 70200.00000 0 5747412.259 9322215.440 23052003.826 10 0 60173 71100.00000 0 3386333.575 10878257.759 22835327.014 10 0 60173 72000.00000 0 1187494.628 12569555.276 22175798.735 10 0 60173 72900.00000 0 -801383.815 14346025.772 21086115.015 10 0 60173 73800.00000 0 -2542774.978 16150672.039 19587309.345 10 0 60173 74700.00000 0 -4010672.021 17921868.700 17708355.477 10 0 60173 75600.00000 0 -5191427.512 19595863.754 15485616.657 10 0 60173 76500.00000 0 -6084071.854 21109391.238 12962150.789 10 0 60173 77400.00000 0 -6700097.698 22402286.165 10186883.936 10 0 60173 78300.00000 0 -7062719.618 23419992.308 7213667.263 10 0 60173 79200.00000 0 -7205640.412 24115857.295 4100235.029 10 0 60173 80100.00000 0 -7171376.277 24453117.878 907083.613 10 0 60173 81000.00000 0 -7009211.936 24406490.944 -2303706.610 10 0 60173 81900.00000 0 -6772872.743 23963302.135 -5469683.254 10 0 60173 82800.00000 0 -6518013.025 23124103.347 -8529243.467 10 0 60173 83700.00000 0 -6299627.981 21902751.996 -11422840.399 10 0 60173 84600.00000 0 -6169499.852 20325947.699 -14094150.213 10 0 60173 85500.00000 0 -6173787.727 18432245.148 -16491175.935 10 0 60174 0.00000 0 -6350864.182 16270584.350 -18567265.756 10 0 60174 900.00000 0 -6729491.557 13898398.461 -20282026.453 10 0 60174 1800.00000 0 -7327415.733 11379381.410 -21602111.068 10 0 60174 2700.00000 0 -8150437.967 8781004.948 -22501869.182 10 0 60174 3600.00000 0 -9192004.490 6171891.780 -22963844.399 10 0 60174 4500.00000 0 -10433331.776 3619153.356 -22979110.818 10 0 60174 5400.00000 0 -11844062.636 1185803.358 -22547442.161 10 0 60174 6300.00000 0 -13383425.848 -1071645.737 -21677310.708 10 0 60174 7200.00000 0 -15001850.788 -3105303.519 -20385716.486 10 0 60174 8100.00000 0 -16642969.403 -4877652.556 -18697850.404 10 0 60174 9000.00000 0 -18245921.524 -6362857.629 -16646598.215 10 0 60174 9900.00000 0 -19747866.807 -7547580.189 -14271895.228 10 0 60174 10800.00000 0 -21086597.867 -8431265.784 -11619944.548 10 0 60174 11700.00000 0 -22203144.928 -9025894.312 -8742314.273 10 0 60174 12600.00000 0 -23044262.652 -9355205.523 -5694931.484 10 0 60174 13500.00000 0 -23564694.813 -9453434.172 -2536992.834 10 0 60174 14400.00000 0 -23729121.816 -9363609.774 670186.811 10 0 60174 15300.00000 0 -23513709.493 -9135494.045 3864365.023 10 0 60174 16200.00000 0 -22907194.325 -8823244.195 6983578.439 10 0 60174 17100.00000 0 -21911459.846 -8482901.516 9967341.865 10 0 60174 18000.00000 0 -20541580.186 -8169811.771 12757816.657 10 0 60174 18900.00000 0 -18825329.082 -7936086.463 15300925.973 10 0 60174 19800.00000 0 -16802174.785 -7828212.057 17547395.817 10 0 60174 20700.00000 0 -14521802.614 -7884907.749 19453702.301 10 0 60174 21600.00000 0 -12042226.287 -8135321.829 20982907.620 10 0 60174 22500.00000 0 -9427565.911 -8597642.364 22105369.404 10 0 60174 23400.00000 0 -6745584.118 -9278180.680 22799310.510 10 0 60174 24300.00000 0 -4065081.536 -10170966.448 23051238.892 10 0 60174 25200.00000 0 -1453258.419 -11257872.016 22856209.880 10 0 60174 26100.00000 0 1026849.372 -12509261.738 22217925.858 10 0 60174 27000.00000 0 3318754.907 -13885140.346 21148671.222 10 0 60174 27900.00000 0 5374627.441 -15336753.674 19669083.287 10 0 60174 28800.00000 0 7157035.725 -16808576.126 17807762.719 10 0 60174 29700.00000 0 8640255.617 -18240602.972 15600729.988 10 0 60174 30600.00000 0 9811088.056 -19570852.495 13090737.223 10 0 60174 31500.00000 0 10669153.585 -20737973.739 10326447.708 10 0 60174 32400.00000 0 11226651.371 -21683850.687 7361498.021 10 0 60174 33300.00000 0 11507593.086 -22356093.259 4253460.325 10 0 60174 34200.00000 0 11546544.078 -22710309.762 1062724.676 10 0 60174 35100.00000 0 11386925.258 -22712064.146 -2148676.903 10 0 60174 36000.00000 0 11078947.858 -22338434.416 -5318281.351 10 0 60174 36900.00000 0 10677269.031 -21579105.151 -8384416.242 10 0 60174 37800.00000 0 10238468.306 -20436946.730 -11287407.566 10 0 60174 38700.00000 0 9818452.684 -18928055.585 -13970749.194 10 0 60174 39600.00000 0 9469901.288 -17081252.696 -16382210.304 10 0 60174 40500.00000 0 9239858.786 -14937060.547 -18474858.430 10 0 60174 41400.00000 0 9167580.395 -12546200.880 -20207977.676 10 0 60174 42300.00000 0 9282720.451 -9967675.850 -21547863.842 10 0 60174 43200.00000 0 9603941.763 -7266512.678 -22468480.923 10 0 60174 44100.00000 0 10138004.991 -4511265.919 -22951966.348 10 0 60174 45000.00000 0 10879376.773 -1771381.513 -22988975.406 10 0 60174 45900.00000 0 11810373.309 885467.694 -22578858.575 10 0 60174 46800.00000 0 12901833.430 3395964.321 -21729668.734 10 0 60174 47700.00000 0 14114292.771 5703539.700 -20457998.541 10 0 60174 48600.00000 0 15399609.588 7760479.176 -18788651.529 10 0 60174 49500.00000 0 16702973.684 9529652.842 -16754153.605 10 0 60174 50400.00000 0 17965213.841 10985800.874 -14394114.754 10 0 60174 51300.00000 0 19125306.526 12116321.394 -11754453.590 10 0 60174 52200.00000 0 20122980.259 12921529.716 -8886500.051 10 0 60174 53100.00000 0 20901305.941 13414379.968 -5845993.976 10 0 60174 54000.00000 0 21409164.109 13619662.662 -2691999.284 10 0 60174 54900.00000 0 21603485.298 13572713.728 514244.863 10 0 60174 55800.00000 0 21451169.290 13317690.926 3710513.313 10 0 60174 56700.00000 0 20930602.612 12905491.605 6834801.278 10 0 60174 57600.00000 0 20032710.564 12391400.575 9826524.337 10 0 60174 58500.00000 0 18761499.635 11832567.964 12627688.814 10 0 60174 59400.00000 0 17134067.490 11285423.749 15184010.127 10 0 60174 60300.00000 0 15180079.884 10803137.937 17445957.915 10 0 60174 61200.00000 0 12940735.972 10433233.242 19369708.307 10 0 60174 62100.00000 0 10467264.577 10215450.355 20917985.710 10 0 60174 63000.00000 0 7819013.196 10179955.260 22060778.656 10 0 60174 63900.00000 0 5061208.176 10345963.612 22775916.659 10 0 60174 64800.00000 0 2262477.873 10720839.869 23049497.604 10 0 60174 65700.00000 0 -507759.833 11299709.140 22876157.818 10 0 60174 66600.00000 0 -3181938.668 12065598.513 22259179.738 10 0 60174 67500.00000 0 -5696905.587 12990102.731 21210434.894 10 0 60174 68400.00000 0 -7996297.897 14034547.336 19750162.727 10 0 60174 69300.00000 0 -10032638.189 15151601.692 17906588.706 10 0 60174 70200.00000 0 -11769060.826 16287275.378 15715388.077 10 0 60174 71100.00000 0 -13180598.719 17383215.255 13219004.485 10 0 60174 72000.00000 0 -14254977.035 18379207.434 10465835.569 10 0 60174 72900.00000 0 -14992880.909 19215779.405 7509300.394 10 0 60174 73800.00000 0 -15407686.090 19836792.790 4406806.118 10 0 60174 74700.00000 0 -15524663.961 20191917.025 1218633.633 10 0 60174 75600.00000 0 -15379694.609 20238878.839 -1993236.116 10 0 60174 76500.00000 0 -15017542.565 19945391.470 -5166331.990 10 0 60174 77400.00000 0 -14489768.515 19290680.803 -8238914.417 10 0 60174 78300.00000 0 -13852365.938 18266542.558 -11151184.456 10 0 60174 79200.00000 0 -13163223.450 16877884.466 -13846455.686 10 0 60174 80100.00000 0 -12479521.119 15142729.227 -16272265.160 10 0 60174 81000.00000 0 -11855171.825 13091676.944 -18381401.019 10 0 60174 81900.00000 0 -11338416.711 10766848.672 -20132826.198 10 0 60174 82800.00000 0 -10969677.086 8220354.678 -21492479.877 10 0 60174 83700.00000 0 -10779754.057 5512351.067 -22433940.991 10 0 60174 84600.00000 0 -10788452.190 2708765.638 -22938941.023 10 0 60174 85500.00000 0 -11003685.391 -121212.324 -22997716.384 10 0 60175 0.00000 0 -11421102.550 -2907773.683 -22609193.983 10 0 60175 900.00000 0 -12024248.784 -5583154.286 -21781006.525 10 0 60175 1800.00000 0 -12785254.529 -8084208.783 -20529338.284 10 0 60175 2700.00000 0 -13666023.812 -10354791.907 -18878604.062 10 0 60175 3600.00000 0 -14619870.769 -12347845.203 -16860968.264 10 0 60175 4500.00000 0 -15593535.225 -14027104.834 -14515713.651 10 0 60175 5400.00000 0 -16529492.059 -15368360.335 -11888472.244 10 0 60175 6300.00000 0 -17368456.729 -16360213.296 -9030333.588 10 0 60175 7200.00000 0 -18051981.082 -17004305.881 -5996847.962 10 0 60175 8100.00000 0 -18525029.830 -17315011.431 -2846944.182 10 0 60175 9000.00000 0 -18738428.963 -17318601.837 358216.696 10 0 60175 9900.00000 0 -18651082.801 -17051928.342 3556429.214 10 0 60175 10800.00000 0 -18231866.270 -16560672.694 6685649.604 10 0 60175 11700.00000 0 -17461112.665 -15897243.434 9685196.669 10 0 60175 12600.00000 0 -16331634.285 -15118406.747 12496924.127 10 0 60175 13500.00000 0 -14849232.881 -14282752.153 15066341.999 10 0 60175 14400.00000 0 -13032678.225 -13448099.829 17343665.758 10 0 60175 15300.00000 0 -10913155.171 -12668958.541 19284773.526 10 0 60175 16200.00000 0 -8533201.621 -11994140.665 20852053.595 10 0 60175 17100.00000 0 -5945180.680 -11464633.959 22015126.734 10 0 60175 18000.00000 0 -3209349.477 -11111818.933 22751430.072 10 0 60175 18900.00000 0 -391603.532 -10956106.113 23046651.973 10 0 60175 19800.00000 0 2439011.189 -11006050.112 22895009.933 10 0 60175 20700.00000 0 5212916.802 -11257977.631 22299366.257 10 0 60175 21600.00000 0 7862645.543 -11696145.280 21271179.076 10 0 60175 22500.00000 0 10325397.076 -12293421.190 19830289.125 10 0 60175 23400.00000 0 12545406.033 -13012462.582 18004545.539 10 0 60175 24300.00000 0 14476022.328 -13807340.794 15829276.906 10 0 60175 25200.00000 0 16081418.275 -14625546.361 13346616.641 10 0 60175 26100.00000 0 17337851.678 -15410290.563 10604694.675 10 0 60175 27000.00000 0 18234432.311 -16103007.023 7656710.184 10 0 60175 27900.00000 0 18773359.713 -16645948.049 4559902.648 10 0 60175 28800.00000 0 18969622.320 -16984765.877 1374440.891 10 0 60175 29700.00000 0 18850170.625 -17070969.176 -1837748.285 10 0 60175 30600.00000 0 18452599.325 -16864149.976 -5014188.780 10 0 60175 31500.00000 0 17823394.368 -16333885.594 -8093076.953 10 0 60175 32400.00000 0 17015819.382 -15461233.697 -11014491.892 10 0 60175 33300.00000 0 16087531.434 -14239755.804 -13721569.649 10 0 60175 34200.00000 0 15098027.658 -12676024.486 -16161617.682 10 0 60175 35100.00000 0 14106031.432 -10789591.500 -18287146.983 10 0 60175 36000.00000 0 13166929.304 -8612416.944 -20056801.249 10 0 60175 36900.00000 0 12330367.530 -6187782.414 -21436164.607 10 0 60175 37800.00000 0 11638110.073 -3568732.939 -22398432.101 10 0 60175 38700.00000 0 11122248.626 -816112.262 -22924930.021 10 0 60175 39600.00000 0 10803840.018 2003726.874 -23005476.207 10 0 60175 40500.00000 0 10692028.154 4821442.283 -22638573.759 10 0 60175 41400.00000 0 10783686.952 7567347.128 -21831434.792 10 0 60175 42300.00000 0 11063598.685 10174070.157 -20599834.217 10 0 60175 43200.00000 0 11505159.478 12579121.171 -18967796.763 10 0 60175 44100.00000 0 12071581.496 14727255.590 -16967123.645 10 0 60175 45000.00000 0 12717540.401 16572540.393 -14636768.360 10 0 60175 45900.00000 0 13391197.960 18080036.413 -12022073.972 10 0 60175 46800.00000 0 14036513.877 19227027.971 -9173886.957 10 0 60175 47700.00000 0 14595748.814 20003749.897 -6147565.081 10 0 60175 48600.00000 0 15012052.535 20413583.033 -3001898.899 10 0 60175 49500.00000 0 15232027.652 20472711.657 202031.940 10 0 60175 50400.00000 0 15208160.537 20209258.731 3402045.005 10 0 60175 51300.00000 0 14901016.698 19661936.780 6536060.821 10 0 60175 52200.00000 0 14281107.940 18878272.306 9543304.505 10 0 60175 53100.00000 0 13330352.539 17912479.393 12365480.020 10 0 60175 54000.00000 0 12043066.786 16823072.479 14947894.529 10 0 60175 54900.00000 0 10426445.919 15670318.967 17240511.533 10 0 60175 55800.00000 0 8500513.746 14513638.573 19198912.968 10 0 60175 56700.00000 0 6297542.330 13409058.292 20785152.455 10 0 60175 57600.00000 0 3860964.912 12406829.126 21968484.033 10 0 60175 58500.00000 0 1243826.221 11549303.807 22725953.056 10 0 60175 59400.00000 0 -1493166.846 10869163.734 23042838.538 10 0 60175 60300.00000 0 -4283914.743 10388068.737 22912938.834 10 0 60175 61200.00000 0 -7059422.396 10115785.806 22338695.306 10 0 60175 62100.00000 0 -9750421.904 10049833.077 21331151.375 10 0 60175 63000.00000 0 -12290013.512 10175654.101 19909747.246 10 0 60175 63900.00000 0 -14616216.411 10467315.417 18101953.440 10 0 60175 64800.00000 0 -16674324.365 10888698.695 15942749.208 10 0 60175 65700.00000 0 -18418968.806 11395137.956 13473954.755 10 0 60175 66600.00000 0 -19815803.756 11935433.602 10743429.136 10 0 60175 67500.00000 0 -20842742.298 12454158.812 7804148.401 10 0 60175 68400.00000 0 -21490692.790 12894161.206 4713181.144 10 0 60175 69300.00000 0 -21763763.730 13199153.974 1530581.038 10 0 60175 70200.00000 0 -21678928.504 13316286.412 -1681782.174 10 0 60175 71100.00000 0 -21265164.007 13198584.234 -4861430.138 10 0 60175 72000.00000 0 -20562099.492 12807155.241 -7946497.647 10 0 60175 72900.00000 0 -19618232.883 12113065.567 -10876944.067 10 0 60175 73800.00000 0 -18488790.259 11098805.621 -13595729.923 10 0 60175 74700.00000 0 -17233319.454 9759282.180 -16049934.779 10 0 60175 75600.00000 0 -15913120.022 8102293.241 -18191793.853 10 0 60175 76500.00000 0 -14588618.651 6148464.202 -19979632.616 10 0 60175 77400.00000 0 -13316801.291 3930646.853 -21378680.784 10 0 60175 78300.00000 0 -12148810.589 1492805.361 -22361749.778 10 0 60175 79200.00000 0 -11127809.957 -1111564.889 -22909760.585 10 0 60175 80100.00000 0 -10287204.050 -3821420.099 -23012112.026 10 0 60175 81000.00000 0 -9649290.110 -6570470.204 -22666882.663 10 0 60175 81900.00000 0 -9224396.208 -9289704.774 -21880862.860 10 0 60175 82800.00000 0 -9010541.779 -11910037.749 -20669416.791 10 0 60175 83700.00000 0 -8993633.694 -14364961.284 -19056177.482 10 0 60175 84600.00000 0 -9148188.499 -16593098.653 -17072581.104 10 0 60175 85500.00000 0 -9438549.314 -18540550.415 -14757249.869 99